| time (UTC) | temp C | wind direction | speed KPH | gust KPH | rain 1hr cm | rain 24hr cm | rain mn cm | humidity % | barometer mb |
| 20260507212008 | 18 | 80 | 3.2 | 12.9 | 0.00 | 0.00 | 0.00 | 69 | 1016.7 |
| 20260507212005 | 18 | 331 | 3.2 | 12.9 | 0.00 | 0.00 | 0.00 | 69 | 1016.1 |
| 20260507211523 | 18 | 13 | 4.8 | 17.7 | 0.00 | 0.00 | 0.00 | 70 | 1016.7 |
| 20260507211006 | 18 | 342 | 6.4 | 17.7 | 0.00 | 0.00 | 0.00 | 69 | 1016.8 |
| 20260507210502 | 18 | 327 | 6.4 | 16.1 | 0.00 | 0.00 | 0.00 | 69 | 1016.3 |
| 20260507210033 | 18 | 327 | 6.4 | 16.1 | 0.00 | 0.00 | 0.00 | 69 | 1016.5 |
| 20260507210016 | 18 | 12 | 4.8 | 11.3 | 0.00 | 0.00 | 0.00 | 69 | 1017.1 |
| 20260507205511 | 18 | 360 | 3.2 | 9.7 | 0.00 | 0.00 | 0.00 | 69 | 1017.1 |
| 20260507205508 | 18 | 327 | 3.2 | 12.9 | 0.00 | 0.00 | 0.00 | 69 | 1016.5 |
| 20260507205009 | 18 | 22 | 1.6 | 8.0 | 0.00 | 0.00 | 0.00 | 70 | 1017.1 |
| 20260507205007 | 18 | 321 | 3.2 | 9.7 | 0.00 | 0.00 | 0.00 | 70 | 1016.5 |
| 20260507204516 | 18 | 281 | 1.6 | 17.7 | 0.00 | 0.00 | 0.00 | 67 | 1017.2 |
| 20260507204514 | 18 | 343 | 1.6 | 17.7 | 0.00 | 0.00 | 0.00 | 67 | 1016.6 |
| 20260507204009 | 18 | 5 | 3.2 | 17.7 | 0.00 | 0.00 | 0.00 | 67 | 1017.0 |
| 20260507203512 | 18 | 332 | 8.0 | 19.3 | 0.00 | 0.00 | 0.00 | 66 | 1016.3 |
| 20260507203509 | 18 | 360 | 6.4 | 17.7 | 0.00 | 0.00 | 0.00 | 66 | 1016.9 |
| 20260507203013 | 19 | 316 | 3.2 | 14.5 | 0.00 | 0.00 | 0.00 | 67 | 1017.0 |
| 20260507203009 | 19 | 330 | 4.8 | 14.5 | 0.00 | 0.00 | 0.00 | 67 | 1016.4 |
| 20260507202507 | 18 | 360 | 4.8 | 14.5 | 0.00 | 0.00 | 0.00 | 69 | 1016.4 |
| 20260507202505 | 18 | 352 | 1.6 | 14.5 | 0.00 | 0.00 | 0.00 | 69 | 1017.0 |
| 20260507202011 | 18 | 333 | 1.6 | 12.9 | 0.00 | 0.00 | 0.00 | 70 | 1017.0 |
| 20260507202005 | 18 | 348 | 1.6 | 16.1 | 0.00 | 0.00 | 0.00 | 70 | 1016.5 |
| 20260507201518 | 18 | 5 | 3.2 | 12.9 | 0.00 | 0.00 | 0.00 | 69 | 1017.0 |
| 20260507201007 | 18 | 360 | 4.8 | 12.9 | 0.00 | 0.00 | 0.00 | 69 | 1017.1 |
| 20260507200508 | 18 | 348 | 4.8 | 12.9 | 0.00 | 0.00 | 0.00 | 73 | 1016.1 |
| 20260507200506 | 18 | 302 | 1.6 | 12.9 | 0.00 | 0.00 | 0.00 | 73 | 1016.7 |
| 20260507200027 | 17 | 340 | 3.2 | 9.7 | 0.00 | 0.00 | 0.00 | 74 | 1016.4 |
| 20260507200021 | 17 | 344 | 1.6 | 9.7 | 0.00 | 0.00 | 0.00 | 74 | 1017.1 |
| 20260507195506 | 17 | 323 | 3.2 | 19.3 | 0.00 | 0.00 | 0.00 | 72 | 1016.6 |
| 20260507195503 | 17 | 13 | 3.2 | 19.3 | 0.00 | 0.00 | 0.00 | 72 | 1017.2 |
| 20260507195007 | 18 | 44 | 4.8 | 19.3 | 0.00 | 0.00 | 0.00 | 72 | 1017.5 |
| 20260507194535 | 18 | 342 | 4.8 | 9.7 | 0.00 | 0.00 | 0.00 | 71 | 1017.2 |
| 20260507194526 | 18 | 291 | 3.2 | 14.5 | 0.00 | 0.00 | 0.00 | 70 | 1017.9 |
| 20260507194010 | 18 | 335 | 1.6 | 14.5 | 0.00 | 0.00 | 0.00 | 70 | 1017.9 |
| 20260507193506 | 17 | 340 | 8.0 | 16.1 | 0.00 | 0.00 | 0.00 | 69 | 1017.1 |
| 20260507193503 | 17 | 34 | 6.4 | 14.5 | 0.00 | 0.00 | 0.00 | 69 | 1017.7 |
| 20260507193027 | 18 | 321 | 3.2 | 14.5 | 0.00 | 0.00 | 0.00 | 72 | 1017.6 |
| 20260507193006 | 18 | 341 | 3.2 | 12.9 | 0.00 | 0.00 | 0.00 | 72 | 1018.2 |
| 20260507192510 | 17 | 340 | 4.8 | 16.1 | 0.00 | 0.00 | 0.00 | 70 | 1017.7 |
| 20260507192505 | 17 | 346 | 1.6 | 16.1 | 0.00 | 0.00 | 0.00 | 70 | 1018.3 |
| 20260507192011 | 17 | 322 | 3.2 | 16.1 | 0.00 | 0.00 | 0.00 | 69 | 1017.6 |
| 20260507192006 | 17 | 352 | 1.6 | 16.1 | 0.00 | 0.00 | 0.00 | 69 | 1018.2 |
| 20260507191514 | 18 | 40 | 3.2 | 17.7 | 0.00 | 0.00 | 0.00 | 68 | 1018.2 |
| 20260507191008 | 18 | 318 | 4.8 | 16.1 | 0.00 | 0.00 | 0.00 | 70 | 1018.2 |
| 20260507191004 | 18 | 338 | 4.8 | 16.1 | 0.00 | 0.00 | 0.00 | 70 | 1017.5 |
| 20260507190507 | 18 | 341 | 6.4 | 16.1 | 0.00 | 0.00 | 0.00 | 69 | 1017.4 |
| 20260507190017 | 18 | 12 | 6.4 | 14.5 | 0.00 | 0.00 | 0.00 | 69 | 1018.2 |
| 20260507185507 | 18 | 318 | 1.6 | 17.7 | 0.00 | 0.00 | 0.00 | 69 | 1018.2 |
| 20260507185010 | 18 | 312 | 8.0 | 16.1 | 0.00 | 0.00 | 0.00 | 68 | 1017.8 |
| 20260507185003 | 18 | 350 | 4.8 | 17.7 | 0.00 | 0.00 | 0.00 | 68 | 1018.4 |
| 20260507184526 | 19 | 322 | 8.0 | 16.1 | 0.00 | 0.00 | 0.00 | 67 | 1017.7 |
| 20260507184512 | 19 | 360 | 4.8 | 16.1 | 0.00 | 0.00 | 0.00 | 67 | 1018.3 |
| 20260507184007 | 19 | 328 | 4.8 | 16.1 | 0.00 | 0.00 | 0.00 | 68 | 1017.7 |
| 20260507184004 | 19 | 335 | 4.8 | 16.1 | 0.00 | 0.00 | 0.00 | 68 | 1018.4 |
| 20260507183511 | 19 | 325 | 3.2 | 16.1 | 0.00 | 0.00 | 0.00 | 68 | 1017.3 |
| 20260507183505 | 19 | 323 | 3.2 | 14.5 | 0.00 | 0.00 | 0.00 | 68 | 1017.9 |
| 20260507183034 | 19 | 352 | 6.4 | 16.1 | 0.00 | 0.00 | 0.00 | 67 | 1017.0 |
| 20260507183010 | 19 | 134 | 3.2 | 11.3 | 0.00 | 0.00 | 0.00 | 67 | 1017.7 |
| 20260507182509 | 19 | 323 | 3.2 | 19.3 | 0.00 | 0.00 | 0.00 | 71 | 1017.3 |
| 20260507182503 | 19 | 13 | 1.6 | 17.7 | 0.00 | 0.00 | 0.00 | 71 | 1018.0 |
| 20260507182013 | 18 | 15 | 4.8 | 19.3 | 0.00 | 0.00 | 0.00 | 67 | 1017.2 |
| 20260507182004 | 18 | 342 | 3.2 | 17.7 | 0.00 | 0.00 | 0.00 | 67 | 1017.9 |
| 20260507181525 | 19 | 343 | 3.2 | 17.7 | 0.00 | 0.00 | 0.00 | 68 | 1017.2 |
| 20260507181507 | 19 | 40 | 3.2 | 16.1 | 0.00 | 0.00 | 0.00 | 69 | 1017.9 |
| 20260507181015 | 19 | 330 | 4.8 | 17.7 | 0.00 | 0.00 | 0.00 | 67 | 1017.1 |
| 20260507181009 | 19 | 15 | 4.8 | 17.7 | 0.00 | 0.00 | 0.00 | 67 | 1017.8 |
| 20260507180507 | 19 | 17 | 4.8 | 19.3 | 0.00 | 0.00 | 0.00 | 67 | 1018.1 |
| 20260507180504 | 19 | 331 | 6.4 | 19.3 | 0.00 | 0.00 | 0.00 | 67 | 1017.4 |
| 20260507180015 | 18 | 19 | 4.8 | 19.3 | 0.00 | 0.00 | 0.00 | 68 | 1018.1 |
| 20260507180005 | 18 | 11 | 8.0 | 19.3 | 0.00 | 0.00 | 0.00 | 68 | 1017.4 |
| 20260507175508 | 18 | 73 | 1.6 | 9.7 | 0.00 | 0.00 | 0.00 | 69 | 1018.0 |
| 20260507175503 | 18 | 20 | 3.2 | 14.5 | 0.00 | 0.00 | 0.00 | 69 | 1017.3 |
| 20260507175007 | 18 | 291 | 3.2 | 11.3 | 0.00 | 0.00 | 0.00 | 68 | 1017.9 |
| 20260507175003 | 18 | 298 | 3.2 | 12.9 | 0.00 | 0.00 | 0.00 | 68 | 1017.3 |
| 20260507174540 | 18 | 52 | 1.6 | 17.7 | 0.00 | 0.00 | 0.00 | 69 | 1018.2 |
| 20260507174503 | 18 | 338 | 4.8 | 17.7 | 0.00 | 0.00 | 0.00 | 69 | 1017.5 |
| 20260507174007 | 18 | 61 | 3.2 | 17.7 | 0.00 | 0.00 | 0.00 | 69 | 1018.2 |
| 20260507174003 | 18 | 322 | 4.8 | 17.7 | 0.00 | 0.00 | 0.00 | 69 | 1017.7 |
| 20260507173509 | 18 | 352 | 4.8 | 12.9 | 0.00 | 0.00 | 0.00 | 69 | 1018.5 |
| 20260507173503 | 18 | 333 | 6.4 | 16.1 | 0.00 | 0.00 | 0.00 | 69 | 1018.0 |
| 20260507173006 | 18 | 312 | 3.2 | 16.1 | 0.00 | 0.00 | 0.00 | 72 | 1018.0 |
| 20260507172504 | 17 | 61 | 3.2 | 12.9 | 0.00 | 0.00 | 0.00 | 73 | 1018.7 |
| 20260507172004 | 17 | 333 | 6.4 | 14.5 | 0.00 | 0.00 | 0.00 | 72 | 1018.2 |
| 20260507171510 | 17 | 5 | 1.6 | 16.1 | 0.00 | 0.00 | 0.00 | 72 | 1019.1 |
| 20260507171503 | 17 | 336 | 4.8 | 16.1 | 0.00 | 0.00 | 0.00 | 72 | 1018.3 |
| 20260507171007 | 17 | 351 | 4.8 | 16.1 | 0.00 | 0.00 | 0.00 | 73 | 1019.4 |
| 20260507171002 | 17 | 328 | 8.0 | 16.1 | 0.00 | 0.00 | 0.00 | 73 | 1018.6 |
| 20260507170504 | 17 | 334 | 4.8 | 16.1 | 0.00 | 0.00 | 0.00 | 75 | 1018.8 |
| 20260507170012 | 17 | 32 | 4.8 | 14.5 | 0.00 | 0.00 | 0.00 | 73 | 1019.4 |
| 20260507170007 | 17 | 43 | 4.8 | 16.1 | 0.00 | 0.00 | 0.00 | 73 | 1018.9 |
| 20260507165508 | 16 | 42 | 1.6 | 14.5 | 0.00 | 0.00 | 0.00 | 75 | 1019.8 |
| 20260507165505 | 16 | 340 | 1.6 | 14.5 | 0.00 | 0.00 | 0.00 | 75 | 1019.3 |
| 20260507165007 | 16 | 74 | 3.2 | 14.5 | 0.00 | 0.00 | 0.00 | 75 | 1020.2 |
| 20260507165003 | 16 | 352 | 3.2 | 14.5 | 0.00 | 0.00 | 0.00 | 75 | 1019.5 |
| 20260507164508 | 16 | 325 | 4.8 | 14.5 | 0.00 | 0.00 | 0.00 | 74 | 1018.9 |
| 20260507164005 | 16 | 360 | 3.2 | 12.9 | 0.00 | 0.00 | 0.00 | 74 | 1019.5 |
| 20260507163508 | 16 | 90 | 1.6 | 9.7 | 0.00 | 0.00 | 0.00 | 74 | 1019.4 |
| 20260507163504 | 16 | 333 | 4.8 | 9.7 | 0.00 | 0.00 | 0.00 | 74 | 1018.9 |
| 20260507163007 | 16 | 33 | 1.6 | 16.1 | 0.00 | 0.00 | 0.00 | 76 | 1019.6 |
| 20260507163003 | 16 | 290 | 1.6 | 16.1 | 0.00 | 0.00 | 0.00 | 76 | 1019.0 |
| 20260507162511 | 15 | 306 | 4.8 | 16.1 | 0.00 | 0.00 | 0.00 | 75 | 1019.4 |
| 20260507162503 | 15 | 342 | 6.4 | 16.1 | 0.00 | 0.00 | 0.00 | 75 | 1018.8 |
| 20260507162004 | 15 | 330 | 3.2 | 14.5 | 0.00 | 0.00 | 0.00 | 77 | 1018.6 |
| 20260507161506 | 15 | 17 | 3.2 | 12.9 | 0.00 | 0.00 | 0.00 | 77 | 1019.4 |
| 20260507161504 | 15 | 315 | 6.4 | 14.5 | 0.00 | 0.00 | 0.00 | 77 | 1018.8 |
| 20260507161005 | 15 | 34 | 4.8 | 17.7 | 0.00 | 0.00 | 0.00 | 77 | 1019.3 |
| 20260507160504 | 15 | 342 | 4.8 | 17.7 | 0.00 | 0.00 | 0.00 | 78 | 1019.2 |
| 20260507160502 | 15 | 320 | 4.8 | 17.7 | 0.00 | 0.00 | 0.00 | 78 | 1018.6 |
| 20260507160014 | 15 | 331 | 3.2 | 16.1 | 0.00 | 0.00 | 0.00 | 77 | 1019.5 |
| 20260507160008 | 15 | 347 | 3.2 | 16.1 | 0.00 | 0.00 | 0.00 | 77 | 1018.9 |
| 20260507155506 | 15 | 308 | 6.4 | 14.5 | 0.00 | 0.00 | 0.00 | 77 | 1019.0 |
| 20260507155504 | 15 | 304 | 4.8 | 14.5 | 0.00 | 0.00 | 0.00 | 77 | 1019.6 |
| 20260507155004 | 15 | 23 | 3.2 | 14.5 | 0.00 | 0.00 | 0.00 | 78 | 1019.5 |
| 20260507154520 | 15 | 340 | 6.4 | 14.5 | 0.00 | 0.00 | 0.00 | 78 | 1019.5 |
| 20260507154506 | 15 | 312 | 4.8 | 14.5 | 0.00 | 0.00 | 0.00 | 78 | 1018.9 |
| 20260507154009 | 15 | 49 | 1.6 | 9.7 | 0.00 | 0.00 | 0.00 | 79 | 1019.8 |
| 20260507154004 | 15 | 329 | 1.6 | 16.1 | 0.00 | 0.00 | 0.00 | 79 | 1019.1 |
| 20260507153505 | 15 | 17 | 3.2 | 9.7 | 0.00 | 0.00 | 0.00 | 79 | 1019.7 |
| 20260507153023 | 15 | 327 | 3.2 | 11.3 | 0.00 | 0.00 | 0.00 | 79 | 1018.9 |
| 20260507153019 | 15 | 328 | 1.6 | 11.3 | 0.00 | 0.00 | 0.00 | 79 | 1019.6 |
| 20260507152510 | 15 | 22 | 3.2 | 11.3 | 0.00 | 0.00 | 0.00 | 79 | 1019.7 |
| 20260507152503 | 15 | 338 | 3.2 | 11.3 | 0.00 | 0.00 | 0.00 | 79 | 1019.1 |
| 20260507152004 | 15 | 352 | 3.2 | 12.9 | 0.00 | 0.00 | 0.00 | 79 | 1018.9 |
| 20260507152001 | 15 | 344 | 3.2 | 11.3 | 0.00 | 0.00 | 0.00 | 79 | 1019.6 |
| 20260507151514 | 15 | 326 | 3.2 | 12.9 | 0.00 | 0.00 | 0.00 | 79 | 1019.5 |
| 20260507151507 | 15 | 360 | 3.2 | 12.9 | 0.00 | 0.00 | 0.00 | 79 | 1018.9 |
| 20260507151003 | 15 | 343 | 1.6 | 12.9 | 0.00 | 0.00 | 0.00 | 80 | 1018.9 |
| 20260507150504 | 15 | 331 | 4.8 | 12.9 | 0.00 | 0.00 | 0.00 | 80 | 1018.9 |
| 20260507150011 | 15 | 19 | 1.6 | 12.9 | 0.00 | 0.00 | 0.00 | 80 | 1019.4 |
| 20260507150008 | 15 | 315 | 3.2 | 12.9 | 0.00 | 0.00 | 0.00 | 80 | 1018.7 |
| 20260507145507 | 15 | 297 | 1.6 | 14.5 | 0.00 | 0.00 | 0.00 | 80 | 1019.3 |
| 20260507145503 | 15 | 350 | 4.8 | 14.5 | 0.00 | 0.00 | 0.00 | 80 | 1018.8 |
| 20260507145011 | 15 | 351 | 3.2 | 19.3 | 0.00 | 0.00 | 0.00 | 79 | 1019.3 |
| 20260507145007 | 15 | 245 | 4.8 | 19.3 | 0.00 | 0.00 | 0.00 | 79 | 1018.6 |
| 20260507144507 | 15 | 298 | 3.2 | 19.3 | 0.00 | 0.00 | 0.00 | 82 | 1018.1 |
| 20260507144006 | 15 | 352 | 4.8 | 19.3 | 0.00 | 0.00 | 0.00 | 80 | 1018.9 |
| 20260507144003 | 15 | 360 | 6.4 | 19.3 | 0.00 | 0.00 | 0.00 | 80 | 1018.1 |
| 20260507143506 | 15 | 22 | 3.2 | 19.3 | 0.00 | 0.00 | 0.00 | 80 | 1018.9 |
| 20260507143020 | 15 | 315 | 6.4 | 17.7 | 0.00 | 0.00 | 0.00 | 80 | 1018.7 |
| 20260507143005 | 15 | 341 | 6.4 | 16.1 | 0.00 | 0.00 | 0.00 | 80 | 1017.8 |
| 20260507142506 | 15 | 10 | 3.2 | 12.9 | 0.00 | 0.00 | 0.00 | 81 | 1018.3 |
| 20260507142504 | 15 | 325 | 6.4 | 12.9 | 0.00 | 0.00 | 0.00 | 81 | 1017.7 |
| 20260507142006 | 15 | 14 | 1.6 | 16.1 | 0.00 | 0.00 | 0.00 | 82 | 1018.0 |
| 20260507141524 | 15 | 336 | 4.8 | 16.1 | 0.00 | 0.00 | 0.00 | 81 | 1018.9 |
| 20260507141503 | 15 | 340 | 4.8 | 16.1 | 0.00 | 0.00 | 0.00 | 81 | 1018.2 |
| 20260507141010 | 15 | 48 | 6.4 | 16.1 | 0.00 | 0.00 | 0.00 | 82 | 1018.9 |
| 20260507141002 | 15 | 350 | 6.4 | 14.5 | 0.00 | 0.00 | 0.00 | 82 | 1018.3 |
| 20260507140504 | 15 | 323 | 6.4 | 16.1 | 0.00 | 0.00 | 0.00 | 82 | 1018.3 |
| 20260507140017 | 15 | 57 | 3.2 | 12.9 | 0.00 | 0.00 | 0.00 | 82 | 1018.8 |
| 20260507140011 | 15 | 349 | 4.8 | 16.1 | 0.00 | 0.00 | 0.00 | 82 | 1018.1 |
| 20260507135504 | 15 | 333 | 4.8 | 19.3 | 0.00 | 0.00 | 0.00 | 82 | 1018.8 |
| 20260507135502 | 15 | 329 | 6.4 | 19.3 | 0.00 | 0.00 | 0.00 | 82 | 1018.1 |
| 20260507135007 | 15 | 346 | 3.2 | 19.3 | 0.00 | 0.00 | 0.00 | 83 | 1018.9 |
| 20260507135004 | 15 | 319 | 4.8 | 19.3 | 0.00 | 0.00 | 0.00 | 83 | 1018.3 |
| 20260507134512 | 15 | 38 | 3.2 | 19.3 | 0.00 | 0.00 | 0.00 | 83 | 1018.8 |
| 20260507134509 | 15 | 306 | 3.2 | 19.3 | 0.00 | 0.00 | 0.00 | 83 | 1018.1 |
| 20260507134007 | 15 | 16 | 4.8 | 19.3 | 0.00 | 0.00 | 0.00 | 83 | 1018.6 |
| 20260507134003 | 15 | 330 | 4.8 | 19.3 | 0.00 | 0.00 | 0.00 | 83 | 1017.9 |
| 20260507133507 | 15 | 352 | 3.2 | 16.1 | 0.00 | 0.00 | 0.00 | 83 | 1018.4 |
| 20260507133503 | 15 | 327 | 4.8 | 16.1 | 0.00 | 0.00 | 0.00 | 83 | 1017.7 |
| 20260507133018 | 15 | 14 | 3.2 | 19.3 | 0.00 | 0.00 | 0.00 | 83 | 1017.8 |
| 20260507133014 | 15 | 106 | 3.2 | 14.5 | 0.00 | 0.00 | 0.00 | 83 | 1018.4 |
| 20260507132508 | 15 | 342 | 4.8 | 16.1 | 0.00 | 0.00 | 0.00 | 83 | 1018.6 |
| 20260507132504 | 15 | 321 | 8.0 | 16.1 | 0.00 | 0.00 | 0.00 | 83 | 1018.0 |
| 20260507132008 | 15 | 346 | 3.2 | 19.3 | 0.00 | 0.00 | 0.00 | 83 | 1018.7 |
| 20260507131519 | 15 | 314 | 6.4 | 17.7 | 0.00 | 0.00 | 0.00 | 83 | 1018.0 |
| 20260507131517 | 15 | 44 | 4.8 | 19.3 | 0.00 | 0.00 | 0.00 | 83 | 1018.6 |
| 20260507131007 | 15 | 11 | 4.8 | 19.3 | 0.00 | 0.00 | 0.00 | 83 | 1018.5 |
| 20260507131003 | 15 | 19 | 6.4 | 19.3 | 0.00 | 0.00 | 0.00 | 83 | 1017.9 |
| 20260507130507 | 15 | 34 | 8.0 | 19.3 | 0.00 | 0.00 | 0.00 | 82 | 1018.4 |
| 20260507130502 | 15 | 317 | 6.4 | 19.3 | 0.00 | 0.00 | 0.00 | 82 | 1017.8 |
| 20260507130027 | 15 | 17 | 6.4 | 19.3 | 0.00 | 0.00 | 0.00 | 83 | 1018.5 |
| 20260507130012 | 15 | 347 | 6.4 | 19.3 | 0.00 | 0.00 | 0.00 | 83 | 1017.8 |
| 20260507125508 | 15 | 352 | 6.4 | 27.4 | 0.00 | 0.00 | 0.00 | 83 | 1018.1 |
| 20260507125004 | 15 | 26 | 4.8 | 27.4 | 0.00 | 0.00 | 0.00 | 83 | 1018.7 |
| 20260507125002 | 15 | 313 | 6.4 | 27.4 | 0.00 | 0.00 | 0.00 | 83 | 1018.0 |
| 20260507124520 | 15 | 340 | 6.4 | 17.7 | 0.00 | 0.00 | 0.00 | 83 | 1017.8 |
| 20260507124511 | 15 | 12 | 6.4 | 22.5 | 0.00 | 0.00 | 0.00 | 83 | 1018.5 |
| 20260507124004 | 15 | 319 | 3.2 | 17.7 | 0.00 | 0.00 | 0.00 | 83 | 1017.9 |
| 20260507123507 | 15 | 309 | 4.8 | 14.5 | 0.00 | 0.00 | 0.00 | 83 | 1018.5 |
| 20260507123505 | 15 | 331 | 4.8 | 17.7 | 0.00 | 0.00 | 0.00 | 83 | 1017.9 |
| 20260507123018 | 15 | 57 | 4.8 | 14.5 | 0.00 | 0.00 | 0.00 | 84 | 1018.4 |
| 20260507123014 | 15 | 352 | 6.4 | 12.9 | 0.00 | 0.00 | 0.00 | 84 | 1017.9 |
| 20260507122512 | 15 | 21 | 4.8 | 22.5 | 0.00 | 0.00 | 0.00 | 84 | 1018.6 |
| 20260507122502 | 15 | 345 | 3.2 | 22.5 | 0.00 | 0.00 | 0.00 | 84 | 1017.9 |
| 20260507122008 | 15 | 122 | 3.2 | 22.5 | 0.00 | 0.00 | 0.00 | 84 | 1018.2 |
| 20260507122006 | 15 | 328 | 4.8 | 22.5 | 0.00 | 0.00 | 0.00 | 84 | 1017.6 |
| 20260507121521 | 15 | 39 | 8.0 | 19.3 | 0.00 | 0.00 | 0.00 | 85 | 1018.2 |
| 20260507121516 | 15 | 346 | 8.0 | 17.7 | 0.00 | 0.00 | 0.00 | 85 | 1017.6 |
| 20260507121007 | 15 | 42 | 6.4 | 19.3 | 0.00 | 0.00 | 0.00 | 85 | 1017.9 |
| 20260507120509 | 15 | 309 | 4.8 | 19.3 | 0.00 | 0.00 | 0.00 | 86 | 1017.2 |
| 20260507120504 | 15 | 360 | 6.4 | 19.3 | 0.00 | 0.00 | 0.00 | 86 | 1017.8 |
| 20260507120028 | 15 | 351 | 3.2 | 16.1 | 0.00 | 0.00 | 0.00 | 86 | 1017.7 |
| 20260507120021 | 15 | 338 | 4.8 | 16.1 | 0.00 | 0.00 | 0.00 | 86 | 1017.1 |
| 20260507115509 | 15 | 352 | 3.2 | 17.7 | 0.00 | 0.00 | 0.00 | 86 | 1017.6 |
| 20260507115503 | 15 | 333 | 4.8 | 14.5 | 0.00 | 0.00 | 0.00 | 86 | 1017.0 |
| 20260507115012 | 15 | 350 | 3.2 | 17.7 | 0.00 | 0.00 | 0.00 | 86 | 1017.7 |
| 20260507115001 | 15 | 318 | 4.8 | 17.7 | 0.00 | 0.00 | 0.00 | 86 | 1017.1 |
| 20260507114516 | 15 | 5 | 4.8 | 17.7 | 0.00 | 0.00 | 0.00 | 85 | 1017.7 |
| 20260507114508 | 15 | 330 | 6.4 | 17.7 | 0.00 | 0.00 | 0.00 | 85 | 1017.1 |
| 20260507114005 | 15 | 304 | 4.8 | 19.3 | 0.00 | 0.00 | 0.00 | 85 | 1017.1 |
| 20260507113508 | 15 | 350 | 6.4 | 19.3 | 0.00 | 0.00 | 0.00 | 86 | 1017.6 |
| 20260507113503 | 15 | 346 | 9.7 | 17.7 | 0.00 | 0.00 | 0.00 | 86 | 1017.0 |
| 20260507113017 | 15 | 9 | 4.8 | 12.9 | 0.00 | 0.00 | 0.00 | 86 | 1017.7 |
| 20260507113010 | 15 | 306 | 4.8 | 17.7 | 0.00 | 0.00 | 0.00 | 86 | 1017.3 |
| 20260507112511 | 15 | 44 | 1.6 | 11.3 | 0.00 | 0.00 | 0.00 | 86 | 1017.7 |
| 20260507112505 | 15 | 9 | 1.6 | 12.9 | 0.00 | 0.00 | 0.00 | 86 | 1017.1 |
| 20260507112008 | 15 | 46 | 3.2 | 12.9 | 0.00 | 0.00 | 0.00 | 86 | 1017.8 |
| 20260507112006 | 15 | 360 | 4.8 | 12.9 | 0.00 | 0.00 | 0.00 | 86 | 1017.2 |
| 20260507111520 | 15 | 293 | 4.8 | 22.5 | 0.00 | 0.00 | 0.00 | 86 | 1017.3 |
| 20260507111513 | 15 | 301 | 1.6 | 22.5 | 0.00 | 0.00 | 0.00 | 86 | 1016.7 |
| 20260507111006 | 15 | 340 | 3.2 | 22.5 | 0.00 | 0.00 | 0.00 | 87 | 1016.7 |
| 20260507110506 | 15 | 213 | 3.2 | 12.9 | 0.00 | 0.00 | 0.00 | 86 | 1017.3 |
| 20260507110023 | 15 | 9 | 4.8 | 14.5 | 0.00 | 0.00 | 0.00 | 87 | 1017.5 |
| 20260507110016 | 15 | 5 | 4.8 | 14.5 | 0.00 | 0.00 | 0.00 | 87 | 1017.0 |
| 20260507105506 | 15 | 331 | 3.2 | 14.5 | 0.00 | 0.00 | 0.00 | 87 | 1016.6 |
| 20260507105504 | 15 | 339 | 3.2 | 14.5 | 0.00 | 0.00 | 0.00 | 87 | 1017.2 |
| 20260507105007 | 15 | 331 | 3.2 | 19.3 | 0.00 | 0.00 | 0.00 | 87 | 1016.5 |
| 20260507104522 | 15 | 352 | 1.6 | 19.3 | 0.00 | 0.00 | 0.00 | 87 | 1017.0 |
| 20260507104518 | 15 | 339 | 3.2 | 19.3 | 0.00 | 0.00 | 0.00 | 87 | 1016.4 |
| 20260507104010 | 15 | 329 | 3.2 | 12.9 | 0.00 | 0.00 | 0.00 | 87 | 1016.7 |
| 20260507103506 | 15 | 328 | 1.6 | 9.7 | 0.00 | 0.00 | 0.00 | 88 | 1017.1 |
| 20260507103501 | 15 | 22 | 4.8 | 9.7 | 0.00 | 0.00 | 0.00 | 88 | 1016.7 |
| 20260507103025 | 15 | 360 | 4.8 | 14.5 | 0.00 | 0.00 | 0.00 | 88 | 1016.7 |
| 20260507103011 | 15 | 10 | 1.6 | 12.9 | 0.00 | 0.00 | 0.00 | 88 | 1017.2 |
| 20260507102504 | 15 | 24 | 3.2 | 12.9 | 0.00 | 0.00 | 0.00 | 87 | 1017.2 |
| 20260507102007 | 15 | 328 | 3.2 | 8.0 | 0.00 | 0.00 | 0.00 | 87 | 1016.8 |
| 20260507101523 | 15 | 20 | 1.6 | 14.5 | 0.00 | 0.00 | 0.00 | 87 | 1017.3 |
| 20260507101517 | 15 | 309 | 1.6 | 14.5 | 0.00 | 0.00 | 0.00 | 87 | 1016.8 |
| 20260507101009 | 15 | 19 | 3.2 | 14.5 | 0.00 | 0.00 | 0.00 | 87 | 1017.2 |
| 20260507101006 | 15 | 346 | 3.2 | 14.5 | 0.00 | 0.00 | 0.00 | 87 | 1016.7 |
| 20260507100507 | 15 | 13 | 3.2 | 14.5 | 0.00 | 0.00 | 0.00 | 87 | 1017.1 |
| 20260507100505 | 15 | 327 | 3.2 | 14.5 | 0.00 | 0.00 | 0.00 | 87 | 1016.6 |
| 20260507100030 | 15 | 349 | 1.6 | 6.4 | 0.00 | 0.00 | 0.00 | 87 | 1017.1 |
| 20260507100026 | 15 | 349 | 3.2 | 12.9 | 0.00 | 0.00 | 0.00 | 87 | 1016.7 |
| 20260507095509 | 15 | 325 | 1.6 | 12.9 | 0.00 | 0.00 | 0.00 | 87 | 1016.6 |
| 20260507095506 | 15 | 53 | 1.6 | 12.9 | 0.00 | 0.00 | 0.00 | 87 | 1017.2 |
| 20260507095008 | 15 | 83 | 3.2 | 12.9 | 0.00 | 0.00 | 0.00 | 87 | 1016.8 |
| 20260507095006 | 15 | 329 | 6.4 | 12.9 | 0.00 | 0.00 | 0.00 | 87 | 1016.4 |
| 20260507094526 | 15 | 345 | 4.8 | 12.9 | 0.00 | 0.00 | 0.00 | 86 | 1016.7 |
| 20260507094512 | 15 | 327 | 3.2 | 12.9 | 0.00 | 0.00 | 0.00 | 86 | 1016.2 |
| 20260507094007 | 15 | 327 | 3.2 | 12.9 | 0.00 | 0.00 | 0.00 | 86 | 1016.3 |
| 20260507093507 | 15 | 327 | 3.2 | 6.4 | 0.00 | 0.00 | 0.00 | 86 | 1016.3 |
| 20260507093031 | 15 | 55 | 0.0 | 6.4 | 0.00 | 0.00 | 0.00 | 86 | 1016.9 |
| 20260507093020 | 15 | 313 | 0.0 | 6.4 | 0.00 | 0.00 | 0.00 | 86 | 1016.3 |
| 20260507092509 | 15 | 298 | 0.0 | 6.4 | 0.00 | 0.00 | 0.00 | 86 | 1016.5 |
| 20260507092507 | 15 | 327 | 1.6 | 9.7 | 0.00 | 0.00 | 0.00 | 86 | 1015.9 |
| 20260507092011 | 15 | 295 | 1.6 | 6.4 | 0.00 | 0.00 | 0.00 | 86 | 1016.2 |
| 20260507092006 | 15 | 331 | 3.2 | 9.7 | 0.00 | 0.00 | 0.00 | 86 | 1015.5 |
| 20260507091524 | 15 | 328 | 3.2 | 8.0 | 0.00 | 0.00 | 0.00 | 86 | 1015.3 |
| 20260507091517 | 15 | 36 | 1.6 | 6.4 | 0.00 | 0.00 | 0.00 | 86 | 1016.0 |
| 20260507091004 | 15 | 336 | 3.2 | 8.0 | 0.00 | 0.00 | 0.00 | 85 | 1015.6 |
| 20260507090510 | 15 | 21 | 1.6 | 4.8 | 0.00 | 0.00 | 0.00 | 86 | 1016.3 |
| 20260507090506 | 15 | 325 | 3.2 | 8.0 | 0.00 | 0.00 | 0.00 | 86 | 1015.7 |
| 20260507090024 | 15 | 352 | 1.6 | 4.8 | 0.00 | 0.00 | 0.00 | 86 | 1016.2 |
| 20260507090004 | 15 | 333 | 1.6 | 8.0 | 0.00 | 0.00 | 0.00 | 86 | 1015.7 |
| 20260507085508 | 15 | 336 | 1.6 | 8.0 | 0.00 | 0.00 | 0.00 | 85 | 1016.5 |
| 20260507085503 | 15 | 327 | 3.2 | 14.5 | 0.00 | 0.00 | 0.00 | 85 | 1015.9 |
| 20260507085005 | 15 | 275 | 0.0 | 8.0 | 0.00 | 0.00 | 0.00 | 86 | 1016.6 |
| 20260507085002 | 15 | 318 | 0.0 | 14.5 | 0.00 | 0.00 | 0.00 | 86 | 1016.0 |
| 20260507084543 | 15 | 360 | 3.2 | 8.0 | 0.00 | 0.00 | 0.00 | 85 | 1016.3 |
| 20260507084503 | 15 | 360 | 6.4 | 14.5 | 0.00 | 0.00 | 0.00 | 85 | 1015.8 |
| 20260507084010 | 15 | 232 | 1.6 | 8.0 | 0.00 | 0.00 | 0.00 | 85 | 1016.4 |
| 20260507084003 | 15 | 330 | 3.2 | 8.0 | 0.00 | 0.00 | 0.00 | 85 | 1015.8 |
| 20260507083508 | 15 | 352 | 1.6 | 11.3 | 0.00 | 0.00 | 0.00 | 85 | 1016.3 |
| 20260507083503 | 15 | 324 | 3.2 | 11.3 | 0.00 | 0.00 | 0.00 | 85 | 1015.6 |
| 20260507083025 | 15 | 360 | 3.2 | 11.3 | 0.00 | 0.00 | 0.00 | 85 | 1016.1 |
| 20260507083002 | 15 | 327 | 3.2 | 11.3 | 0.00 | 0.00 | 0.00 | 85 | 1015.5 |
| 20260507082509 | 15 | 315 | 0.0 | 12.9 | 0.00 | 0.00 | 0.00 | 85 | 1016.0 |
| 20260507082504 | 15 | 333 | 1.6 | 14.5 | 0.00 | 0.00 | 0.00 | 85 | 1015.3 |
| 20260507082011 | 15 | 317 | 3.2 | 12.9 | 0.00 | 0.00 | 0.00 | 84 | 1016.0 |
| 20260507082005 | 15 | 342 | 3.2 | 14.5 | 0.00 | 0.00 | 0.00 | 84 | 1015.4 |
| 20260507081515 | 15 | 331 | 1.6 | 9.7 | 0.00 | 0.00 | 0.00 | 84 | 1015.4 |
| 20260507081012 | 15 | 316 | 1.6 | 9.7 | 0.00 | 0.00 | 0.00 | 84 | 1016.1 |
| 20260507081003 | 15 | 348 | 3.2 | 9.7 | 0.00 | 0.00 | 0.00 | 84 | 1015.5 |
| 20260507080505 | 15 | 81 | 1.6 | 9.7 | 0.00 | 0.00 | 0.00 | 84 | 1015.9 |
| 20260507080503 | 15 | 61 | 1.6 | 9.7 | 0.00 | 0.00 | 0.00 | 84 | 1015.2 |
| 20260507080017 | 15 | 287 | 1.6 | 9.7 | 0.00 | 0.00 | 0.00 | 84 | 1016.1 |
| 20260507080011 | 15 | 337 | 1.6 | 8.0 | 0.00 | 0.00 | 0.00 | 84 | 1015.4 |
| 20260507075508 | 15 | 9 | 1.6 | 8.0 | 0.00 | 0.00 | 0.00 | 84 | 1015.9 |
| 20260507075502 | 15 | 325 | 3.2 | 14.5 | 0.00 | 0.00 | 0.00 | 84 | 1015.2 |
| 20260507075013 | 15 | 179 | 3.2 | 14.5 | 0.00 | 0.00 | 0.00 | 84 | 1015.8 |
| 20260507075002 | 15 | 346 | 3.2 | 14.5 | 0.00 | 0.00 | 0.00 | 84 | 1015.2 |
| 20260507074524 | 15 | 335 | 4.8 | 16.1 | 0.00 | 0.00 | 0.00 | 83 | 1015.8 |
| 20260507074504 | 15 | 336 | 6.4 | 16.1 | 0.00 | 0.00 | 0.00 | 83 | 1015.2 |
| 20260507074007 | 15 | 86 | 1.6 | 16.1 | 0.00 | 0.00 | 0.00 | 83 | 1015.4 |
| 20260507074004 | 15 | 342 | 1.6 | 16.1 | 0.00 | 0.00 | 0.00 | 83 | 1016.1 |
| 20260507073508 | 15 | 352 | 1.6 | 16.1 | 0.00 | 0.00 | 0.00 | 84 | 1016.0 |
| 20260507073502 | 15 | 325 | 4.8 | 16.1 | 0.00 | 0.00 | 0.00 | 84 | 1015.4 |
| 20260507073027 | 15 | 42 | 4.8 | 16.1 | 0.00 | 0.00 | 0.00 | 83 | 1016.2 |
| 20260507073008 | 15 | 319 | 4.8 | 16.1 | 0.00 | 0.00 | 0.00 | 83 | 1015.6 |
| 20260507072512 | 15 | 23 | 1.6 | 8.0 | 0.00 | 0.00 | 0.00 | 83 | 1016.4 |
| 20260507072503 | 15 | 322 | 4.8 | 9.7 | 0.00 | 0.00 | 0.00 | 83 | 1015.8 |
| 20260507072006 | 15 | 97 | 1.6 | 8.0 | 0.00 | 0.00 | 0.00 | 84 | 1016.5 |
| 20260507072003 | 15 | 109 | 1.6 | 8.0 | 0.00 | 0.00 | 0.00 | 84 | 1015.8 |
| 20260507071524 | 15 | 320 | 3.2 | 12.9 | 0.00 | 0.00 | 0.00 | 83 | 1016.3 |
| 20260507071511 | 15 | 324 | 1.6 | 14.5 | 0.00 | 0.00 | 0.00 | 83 | 1015.5 |
| 20260507071010 | 15 | 30 | 1.6 | 12.9 | 0.00 | 0.00 | 0.00 | 84 | 1016.1 |
| 20260507071003 | 15 | 326 | 1.6 | 16.1 | 0.00 | 0.00 | 0.00 | 84 | 1015.3 |
| 20260507070504 | 15 | 342 | 3.2 | 11.3 | 0.00 | 0.00 | 0.00 | 84 | 1015.7 |
| 20260507070015 | 15 | 271 | 0.0 | 4.8 | 0.00 | 0.00 | 0.00 | 84 | 1016.3 |
| 20260507070009 | 15 | 348 | 3.2 | 8.0 | 0.00 | 0.00 | 0.00 | 84 | 1015.7 |
| 20260507065505 | 15 | 292 | 0.0 | 4.8 | 0.00 | 0.00 | 0.00 | 83 | 1015.8 |
| 20260507065502 | 15 | 17 | 1.6 | 4.8 | 0.00 | 0.00 | 0.00 | 83 | 1016.5 |
| 20260507065006 | 15 | 213 | 0.0 | 4.8 | 0.00 | 0.00 | 0.00 | 83 | 1015.1 |
| 20260507065003 | 15 | 33 | 0.0 | 4.8 | 0.00 | 0.00 | 0.00 | 83 | 1016.0 |
| 20260507064523 | 15 | 352 | 1.6 | 9.7 | 0.00 | 0.00 | 0.00 | 83 | 1015.2 |
| 20260507064506 | 15 | 33 | 0.0 | 8.0 | 0.00 | 0.00 | 0.00 | 83 | 1015.7 |
| 20260507064005 | 15 | 325 | 3.2 | 9.7 | 0.00 | 0.00 | 0.00 | 83 | 1014.9 |
| 20260507064003 | 15 | 352 | 3.2 | 8.0 | 0.00 | 0.00 | 0.00 | 83 | 1015.6 |
| 20260507063504 | 15 | 315 | 3.2 | 11.3 | 0.00 | 0.00 | 0.00 | 83 | 1015.4 |
| 20260507063006 | 15 | 300 | 3.2 | 11.3 | 0.00 | 0.00 | 0.00 | 83 | 1015.6 |
| 20260507063004 | 15 | 360 | 1.6 | 12.9 | 0.00 | 0.00 | 0.00 | 83 | 1016.3 |
| 20260507062504 | 16 | 329 | 3.2 | 14.5 | 0.00 | 0.00 | 0.00 | 82 | 1015.1 |
| 20260507062003 | 16 | 324 | 4.8 | 14.5 | 0.00 | 0.00 | 0.00 | 82 | 1015.3 |
| 20260507061510 | 16 | 324 | 4.8 | 14.5 | 0.00 | 0.00 | 0.00 | 82 | 1015.6 |
| 20260507061504 | 16 | 360 | 3.2 | 14.5 | 0.00 | 0.00 | 0.00 | 82 | 1016.3 |
| 20260507061005 | 16 | 5 | 3.2 | 14.5 | 0.00 | 0.00 | 0.00 | 82 | 1015.6 |
| 20260507061003 | 16 | 326 | 6.4 | 14.5 | 0.00 | 0.00 | 0.00 | 82 | 1014.8 |
| 20260507060503 | 16 | 22 | 0.0 | 8.0 | 0.00 | 0.00 | 0.00 | 82 | 1015.6 |
| 20260507060009 | 16 | 321 | 6.4 | 14.5 | 0.00 | 0.00 | 0.00 | 82 | 1015.4 |
| 20260507060003 | 16 | 315 | 3.2 | 8.0 | 0.00 | 0.00 | 0.00 | 82 | 1016.0 |
| 20260507055504 | 16 | 342 | 1.6 | 14.5 | 0.00 | 0.00 | 0.00 | 82 | 1015.3 |
| 20260507055007 | 16 | 311 | 4.8 | 14.5 | 0.00 | 0.00 | 0.00 | 82 | 1015.5 |
| 20260507055004 | 16 | 22 | 3.2 | 14.5 | 0.00 | 0.00 | 0.00 | 82 | 1016.2 |
| 20260507054505 | 16 | 327 | 4.8 | 9.7 | 0.00 | 0.00 | 0.00 | 82 | 1015.4 |
| 20260507054005 | 16 | 313 | 3.2 | 9.7 | 0.00 | 0.00 | 0.00 | 82 | 1015.4 |
| 20260507054003 | 16 | 313 | 1.6 | 11.3 | 0.00 | 0.00 | 0.00 | 82 | 1016.0 |
| 20260507053508 | 16 | 323 | 3.2 | 14.5 | 0.00 | 0.00 | 0.00 | 82 | 1015.6 |
| 20260507053503 | 16 | 331 | 3.2 | 14.5 | 0.00 | 0.00 | 0.00 | 82 | 1016.3 |
| 20260507053005 | 16 | 22 | 1.6 | 14.5 | 0.00 | 0.00 | 0.00 | 81 | 1016.2 |
| 20260507052507 | 16 | 319 | 1.6 | 16.1 | 0.00 | 0.00 | 0.00 | 82 | 1015.5 |
| 20260507052502 | 16 | 55 | 1.6 | 11.3 | 0.00 | 0.00 | 0.00 | 82 | 1016.2 |
| 20260507052004 | 16 | 322 | 1.6 | 17.7 | 0.00 | 0.00 | 0.00 | 82 | 1015.2 |
| 20260507051505 | 16 | 38 | 3.2 | 19.3 | 0.00 | 0.00 | 0.00 | 81 | 1015.8 |
| 20260507051006 | 16 | 42 | 1.6 | 19.3 | 0.00 | 0.00 | 0.00 | 81 | 1015.8 |
| 20260507051003 | 16 | 302 | 4.8 | 19.3 | 0.00 | 0.00 | 0.00 | 81 | 1015.3 |
| 20260507050504 | 16 | 17 | 3.2 | 12.9 | 0.00 | 0.00 | 0.00 | 81 | 1015.6 |
| 20260507050502 | 16 | 13 | 3.2 | 14.5 | 0.00 | 0.00 | 0.00 | 81 | 1016.2 |
| 20260507050013 | 16 | 5 | 3.2 | 14.5 | 0.00 | 0.00 | 0.00 | 81 | 1016.2 |
| 20260507045506 | 16 | 28 | 4.8 | 19.3 | 0.00 | 0.00 | 0.00 | 81 | 1016.0 |
| 20260507045503 | 16 | 338 | 4.8 | 19.3 | 0.00 | 0.00 | 0.00 | 81 | 1015.5 |
| 20260507045007 | 16 | 308 | 1.6 | 19.3 | 0.00 | 0.00 | 0.00 | 81 | 1015.6 |
| 20260507045004 | 16 | 13 | 1.6 | 19.3 | 0.00 | 0.00 | 0.00 | 81 | 1016.2 |
| 20260507044521 | 16 | 339 | 4.8 | 19.3 | 0.00 | 0.00 | 0.00 | 82 | 1015.3 |
| 20260507044504 | 16 | 61 | 3.2 | 19.3 | 0.00 | 0.00 | 0.00 | 82 | 1016.0 |
| 20260507044008 | 16 | 317 | 3.2 | 16.1 | 0.00 | 0.00 | 0.00 | 81 | 1015.2 |
| 20260507044003 | 16 | 352 | 3.2 | 19.3 | 0.00 | 0.00 | 0.00 | 81 | 1015.8 |
| 20260507043503 | 16 | 336 | 3.2 | 16.1 | 0.00 | 0.00 | 0.00 | 81 | 1015.4 |
| 20260507043014 | 16 | 317 | 4.8 | 16.1 | 0.00 | 0.00 | 0.00 | 81 | 1015.3 |
| 20260507043005 | 16 | 94 | 1.6 | 16.1 | 0.00 | 0.00 | 0.00 | 81 | 1015.9 |
| 20260507042509 | 16 | 313 | 4.8 | 16.1 | 0.00 | 0.00 | 0.00 | 81 | 1015.5 |
| 20260507042503 | 16 | 327 | 4.8 | 17.7 | 0.00 | 0.00 | 0.00 | 81 | 1016.1 |
| 20260507042003 | 16 | 34 | 6.4 | 17.7 | 0.00 | 0.00 | 0.00 | 81 | 1016.1 |
| 20260507041504 | 16 | 302 | 6.4 | 14.5 | 0.00 | 0.00 | 0.00 | 81 | 1015.4 |
| 20260507041004 | 16 | 321 | 4.8 | 14.5 | 0.00 | 0.00 | 0.00 | 82 | 1015.5 |
| 20260507040505 | 16 | 350 | 4.8 | 14.5 | 0.00 | 0.00 | 0.00 | 81 | 1015.4 |
| 20260507040007 | 16 | 51 | 4.8 | 11.3 | 0.00 | 0.00 | 0.00 | 81 | 1015.9 |
| 20260507035505 | 16 | 319 | 1.6 | 14.5 | 0.00 | 0.00 | 0.00 | 81 | 1015.3 |
| 20260507035502 | 16 | 14 | 1.6 | 12.9 | 0.00 | 0.00 | 0.00 | 81 | 1016.0 |
| 20260507035005 | 16 | 322 | 4.8 | 14.5 | 0.00 | 0.00 | 0.00 | 81 | 1015.2 |
| 20260507035003 | 16 | 38 | 3.2 | 12.9 | 0.00 | 0.00 | 0.00 | 81 | 1015.8 |
| 20260507034512 | 16 | 328 | 3.2 | 12.9 | 0.00 | 0.00 | 0.00 | 81 | 1015.2 |
| 20260507034507 | 16 | 316 | 1.6 | 12.9 | 0.00 | 0.00 | 0.00 | 81 | 1015.8 |
| 20260507034008 | 16 | 22 | 3.2 | 11.3 | 0.00 | 0.00 | 0.00 | 81 | 1016.0 |
| 20260507034004 | 16 | 329 | 3.2 | 9.7 | 0.00 | 0.00 | 0.00 | 81 | 1015.3 |
| 20260507033505 | 16 | 336 | 1.6 | 9.7 | 0.00 | 0.00 | 0.00 | 81 | 1015.3 |
| 20260507033503 | 16 | 344 | 3.2 | 11.3 | 0.00 | 0.00 | 0.00 | 81 | 1016.0 |
| 20260507033033 | 16 | 339 | 3.2 | 20.9 | 0.00 | 0.00 | 0.00 | 81 | 1015.3 |
| 20260507033004 | 16 | 344 | 3.2 | 20.9 | 0.00 | 0.00 | 0.00 | 81 | 1016.1 |
| 20260507032504 | 16 | 17 | 3.2 | 20.9 | 0.00 | 0.00 | 0.00 | 81 | 1016.2 |
| 20260507032010 | 16 | 317 | 1.6 | 16.1 | 0.00 | 0.00 | 0.00 | 81 | 1015.0 |
| 20260507032003 | 16 | 9 | 1.6 | 16.1 | 0.00 | 0.00 | 0.00 | 81 | 1015.9 |
| 20260507031521 | 16 | 18 | 3.2 | 17.7 | 0.00 | 0.00 | 0.00 | 81 | 1014.9 |
| 20260507031508 | 16 | 14 | 3.2 | 17.7 | 0.00 | 0.00 | 0.00 | 81 | 1015.8 |
| 20260507031004 | 16 | 5 | 4.8 | 17.7 | 0.00 | 0.00 | 0.00 | 81 | 1015.4 |
| 20260507030504 | 16 | 47 | 4.8 | 16.1 | 0.00 | 0.00 | 0.00 | 81 | 1015.2 |
| 20260507030006 | 16 | 40 | 4.8 | 16.1 | 0.00 | 0.00 | 0.00 | 81 | 1015.3 |
| 20260507025504 | 16 | 319 | 6.4 | 19.3 | 0.00 | 0.00 | 0.00 | 81 | 1014.1 |
| 20260507025008 | 16 | 337 | 4.8 | 19.3 | 0.00 | 0.00 | 0.00 | 81 | 1015.6 |
| 20260507025002 | 16 | 330 | 4.8 | 12.9 | 0.00 | 0.00 | 0.00 | 81 | 1014.8 |
| 20260507024510 | 16 | 327 | 3.2 | 12.9 | 0.00 | 0.00 | 0.00 | 81 | 1015.0 |
| 20260507024504 | 16 | 36 | 3.2 | 12.9 | 0.00 | 0.00 | 0.00 | 81 | 1015.9 |
| 20260507024007 | 16 | 330 | 1.6 | 14.5 | 0.00 | 0.00 | 0.00 | 80 | 1014.6 |
| 20260507024002 | 16 | 122 | 1.6 | 12.9 | 0.00 | 0.00 | 0.00 | 80 | 1015.5 |
| 20260507023506 | 16 | 330 | 6.4 | 14.5 | 0.00 | 0.00 | 0.00 | 80 | 1014.4 |
| 20260507023020 | 16 | 325 | 3.2 | 12.9 | 0.00 | 0.00 | 0.00 | 81 | 1014.1 |
| 20260507023005 | 16 | 15 | 3.2 | 12.9 | 0.00 | 0.00 | 0.00 | 81 | 1015.0 |
| 20260507022507 | 16 | 329 | 3.2 | 12.9 | 0.00 | 0.00 | 0.00 | 81 | 1014.2 |
| 20260507022505 | 16 | 5 | 1.6 | 12.9 | 0.00 | 0.00 | 0.00 | 81 | 1015.0 |
| 20260507022006 | 16 | 328 | 3.2 | 9.7 | 0.00 | 0.00 | 0.00 | 81 | 1014.5 |
| 20260507021515 | 16 | 36 | 1.6 | 11.3 | 0.00 | 0.00 | 0.00 | 81 | 1015.4 |
| 20260507021508 | 16 | 288 | 3.2 | 12.9 | 0.00 | 0.00 | 0.00 | 81 | 1014.4 |
| 20260507021010 | 16 | 320 | 3.2 | 12.9 | 0.00 | 0.00 | 0.00 | 80 | 1014.4 |
| 20260507021004 | 16 | 34 | 3.2 | 11.3 | 0.00 | 0.00 | 0.00 | 80 | 1015.3 |
| 20260507020512 | 16 | 315 | 3.2 | 12.9 | 0.00 | 0.00 | 0.00 | 80 | 1014.3 |
| 20260507020504 | 16 | 10 | 3.2 | 9.7 | 0.00 | 0.00 | 0.00 | 80 | 1015.1 |
| 20260507020026 | 16 | 319 | 1.6 | 12.9 | 0.00 | 0.00 | 0.00 | 80 | 1014.1 |
| 20260507020005 | 16 | 19 | 3.2 | 12.9 | 0.00 | 0.00 | 0.00 | 80 | 1014.9 |
| 20260507015506 | 16 | 322 | 3.2 | 12.9 | 0.00 | 0.00 | 0.00 | 80 | 1013.7 |
| 20260507015005 | 16 | 340 | 3.2 | 14.5 | 0.00 | 0.00 | 0.00 | 80 | 1013.8 |
| 20260507014513 | 16 | 323 | 4.8 | 14.5 | 0.00 | 0.00 | 0.00 | 80 | 1013.9 |
| 20260507014508 | 16 | 348 | 3.2 | 9.7 | 0.00 | 0.00 | 0.00 | 80 | 1014.6 |
| 20260507014005 | 16 | 360 | 1.6 | 8.0 | 0.00 | 0.00 | 0.00 | 81 | 1014.5 |
| 20260507014003 | 16 | 333 | 3.2 | 8.0 | 0.00 | 0.00 | 0.00 | 81 | 1013.8 |
| 20260507013503 | 16 | 31 | 1.6 | 9.7 | 0.00 | 0.00 | 0.00 | 81 | 1014.3 |
| 20260507013013 | 16 | 332 | 3.2 | 12.9 | 0.00 | 0.00 | 0.00 | 80 | 1013.5 |
| 20260507013009 | 16 | 41 | 0.0 | 9.7 | 0.00 | 0.00 | 0.00 | 80 | 1014.1 |
| 20260507012508 | 16 | 338 | 3.2 | 12.9 | 0.00 | 0.00 | 0.00 | 80 | 1013.6 |
| 20260507012505 | 16 | 330 | 0.0 | 6.4 | 0.00 | 0.00 | 0.00 | 80 | 1014.3 |
| 20260507012003 | 16 | 342 | 3.2 | 12.9 | 0.00 | 0.00 | 0.00 | 80 | 1014.1 |
| 20260507011517 | 16 | 346 | 1.6 | 14.5 | 0.00 | 0.00 | 0.00 | 81 | 1013.3 |
| 20260507011514 | 16 | 46 | 3.2 | 12.9 | 0.00 | 0.00 | 0.00 | 81 | 1013.9 |
| 20260507011007 | 16 | 336 | 3.2 | 14.5 | 0.00 | 0.00 | 0.00 | 81 | 1013.2 |
| 20260507011003 | 16 | 5 | 1.6 | 9.7 | 0.00 | 0.00 | 0.00 | 81 | 1014.0 |
| 20260507010506 | 16 | 14 | 1.6 | 12.9 | 0.00 | 0.00 | 0.00 | 81 | 1013.8 |
| 20260507010503 | 16 | 330 | 1.6 | 12.9 | 0.00 | 0.00 | 0.00 | 81 | 1013.1 |
| 20260507010025 | 16 | 338 | 1.6 | 12.9 | 0.00 | 0.00 | 0.00 | 80 | 1013.0 |
| 20260507010018 | 16 | 300 | 1.6 | 12.9 | 0.00 | 0.00 | 0.00 | 80 | 1013.8 |
| 20260507005506 | 16 | 332 | 3.2 | 9.7 | 0.00 | 0.00 | 0.00 | 80 | 1012.8 |
| 20260507005503 | 16 | 336 | 1.6 | 11.3 | 0.00 | 0.00 | 0.00 | 80 | 1013.6 |
| 20260507005010 | 16 | 332 | 3.2 | 11.3 | 0.00 | 0.00 | 0.00 | 80 | 1012.9 |
| 20260507005007 | 16 | 10 | 1.6 | 11.3 | 0.00 | 0.00 | 0.00 | 80 | 1013.7 |
| 20260507004515 | 16 | 334 | 1.6 | 16.1 | 0.00 | 0.00 | 0.00 | 81 | 1013.1 |
| 20260507004505 | 16 | 352 | 1.6 | 16.1 | 0.00 | 0.00 | 0.00 | 81 | 1013.8 |
| 20260507004004 | 16 | 14 | 3.2 | 16.1 | 0.00 | 0.00 | 0.00 | 80 | 1013.6 |
| 20260507003504 | 16 | 314 | 1.6 | 9.7 | 0.00 | 0.00 | 0.00 | 80 | 1013.5 |
| 20260507003007 | 16 | 17 | 1.6 | 9.7 | 0.00 | 0.00 | 0.00 | 79 | 1013.5 |
| 20260507002504 | 16 | 257 | 1.6 | 8.0 | 0.00 | 0.00 | 0.00 | 80 | 1013.5 |
| 20260507002010 | 16 | 333 | 3.2 | 12.9 | 0.00 | 0.00 | 0.00 | 79 | 1012.6 |
| 20260507002003 | 16 | 321 | 3.2 | 12.9 | 0.00 | 0.00 | 0.00 | 79 | 1013.4 |
| 20260507001518 | 16 | 327 | 1.6 | 20.9 | 0.00 | 0.00 | 0.00 | 80 | 1012.5 |
| 20260507001505 | 16 | 335 | 3.2 | 20.9 | 0.00 | 0.00 | 0.00 | 80 | 1013.3 |
| 20260507001004 | 17 | 341 | 3.2 | 20.9 | 0.00 | 0.00 | 0.00 | 79 | 1013.5 |
| 20260507000508 | 17 | 345 | 1.6 | 16.1 | 0.00 | 0.00 | 0.00 | 79 | 1013.5 |
| 20260507000506 | 17 | 346 | 3.2 | 12.9 | 0.00 | 0.00 | 0.00 | 79 | 1012.7 |
| 20260507000007 | 17 | 338 | 3.2 | 19.3 | 0.00 | 0.00 | 0.00 | 79 | 1012.7 |
| 20260506235505 | 17 | 329 | 4.8 | 16.1 | 0.00 | 0.00 | 0.00 | 78 | 1012.7 |
| 20260506235007 | 17 | 341 | 3.2 | 9.7 | 0.00 | 0.00 | 0.00 | 78 | 1013.2 |
| 20260506235003 | 17 | 338 | 3.2 | 9.7 | 0.00 | 0.00 | 0.00 | 78 | 1012.4 |
| 20260506234509 | 17 | 338 | 3.2 | 14.5 | 0.00 | 0.00 | 0.00 | 79 | 1012.6 |
| 20260506234004 | 17 | 352 | 3.2 | 14.5 | 0.00 | 0.00 | 0.00 | 78 | 1013.4 |
| 20260506234001 | 17 | 332 | 4.8 | 14.5 | 0.00 | 0.00 | 0.00 | 78 | 1012.5 |
| 20260506233505 | 17 | 344 | 3.2 | 9.7 | 0.00 | 0.00 | 0.00 | 78 | 1012.4 |
| 20260506233012 | 17 | 323 | 4.8 | 14.5 | 0.00 | 0.00 | 0.00 | 78 | 1012.5 |
| 20260506233010 | 17 | 54 | 3.2 | 14.5 | 0.00 | 0.00 | 0.00 | 78 | 1013.3 |
| 20260506232503 | 17 | 27 | 1.6 | 17.7 | 0.00 | 0.00 | 0.00 | 78 | 1013.3 |
| 20260506232005 | 17 | 333 | 6.4 | 19.3 | 0.00 | 0.00 | 0.00 | 77 | 1012.4 |
| 20260506232003 | 17 | 338 | 6.4 | 19.3 | 0.00 | 0.00 | 0.00 | 77 | 1013.3 |
| 20260506231517 | 17 | 227 | 4.8 | 19.3 | 0.00 | 0.00 | 0.00 | 76 | 1012.4 |
| 20260506231508 | 17 | 18 | 4.8 | 19.3 | 0.00 | 0.00 | 0.00 | 76 | 1013.2 |
| 20260506231007 | 17 | 349 | 1.6 | 14.5 | 0.00 | 0.00 | 0.00 | 77 | 1012.2 |
| 20260506231004 | 17 | 352 | 3.2 | 16.1 | 0.00 | 0.00 | 0.00 | 77 | 1013.0 |
| 20260506230504 | 18 | 352 | 3.2 | 14.5 | 0.00 | 0.00 | 0.00 | 76 | 1013.0 |
| 20260506230502 | 18 | 337 | 6.4 | 14.5 | 0.00 | 0.00 | 0.00 | 76 | 1012.3 |
| 20260506230014 | 18 | 290 | 3.2 | 16.1 | 0.00 | 0.00 | 0.00 | 78 | 1012.3 |
| 20260506230012 | 18 | 360 | 3.2 | 16.1 | 0.00 | 0.00 | 0.00 | 78 | 1012.9 |
| 20260506225508 | 18 | 336 | 3.2 | 16.1 | 0.00 | 0.00 | 0.00 | 76 | 1012.9 |
| 20260506225004 | 18 | 329 | 4.8 | 14.5 | 0.00 | 0.00 | 0.00 | 75 | 1012.7 |
| 20260506225002 | 18 | 323 | 3.2 | 14.5 | 0.00 | 0.00 | 0.00 | 75 | 1012.1 |
| 20260506224507 | 18 | 313 | 3.2 | 14.5 | 0.00 | 0.00 | 0.00 | 76 | 1012.1 |
| 20260506224006 | 18 | 331 | 3.2 | 14.5 | 0.00 | 0.00 | 0.00 | 74 | 1012.8 |
| 20260506224004 | 18 | 320 | 1.6 | 16.1 | 0.00 | 0.00 | 0.00 | 74 | 1012.2 |
| 20260506223506 | 18 | 348 | 4.8 | 12.9 | 0.00 | 0.00 | 0.00 | 75 | 1012.8 |
| 20260506223501 | 18 | 304 | 4.8 | 17.7 | 0.00 | 0.00 | 0.00 | 75 | 1012.2 |
| 20260506223015 | 18 | 336 | 3.2 | 16.1 | 0.00 | 0.00 | 0.00 | 75 | 1012.6 |
| 20260506223006 | 18 | 345 | 3.2 | 16.1 | 0.00 | 0.00 | 0.00 | 75 | 1012.1 |
| 20260506222506 | 19 | 336 | 6.4 | 16.1 | 0.00 | 0.00 | 0.00 | 74 | 1012.1 |
| 20260506222008 | 19 | 91 | 3.2 | 14.5 | 0.00 | 0.00 | 0.00 | 75 | 1012.7 |
| 20260506221510 | 18 | 360 | 4.8 | 17.7 | 0.00 | 0.00 | 0.00 | 73 | 1012.5 |
| 20260506221004 | 19 | 47 | 8.0 | 0.0 | 0.00 | 0.00 | 0.00 | 73 | 1012.3 |
| 20260506221002 | 19 | 327 | 4.8 | 17.7 | 0.00 | 0.00 | 0.00 | 73 | 1011.9 |
| 20260506220506 | 19 | 334 | 3.2 | 16.1 | 0.00 | 0.00 | 0.00 | 74 | 1011.9 |
| 20260506220504 | 19 | 306 | 1.6 | 12.9 | 0.00 | 0.00 | 0.00 | 74 | 1012.4 |
| 20260506220031 | 20 | 320 | 6.4 | 24.1 | 0.00 | 0.00 | 0.00 | 71 | 1011.9 |
| 20260506220029 | 20 | 59 | 4.8 | 24.1 | 0.00 | 0.00 | 0.00 | 71 | 1012.4 |
| 20260506215506 | 20 | 38 | 3.2 | 24.1 | 0.00 | 0.00 | 0.00 | 71 | 1012.4 |
| 20260506215503 | 20 | 331 | 1.6 | 24.1 | 0.00 | 0.00 | 0.00 | 71 | 1011.8 |
| 20260506215012 | 20 | 240 | 3.2 | 19.3 | 0.00 | 0.00 | 0.00 | 72 | 1012.4 |
| 20260506215006 | 20 | 331 | 4.8 | 19.3 | 0.00 | 0.00 | 0.00 | 72 | 1011.9 |
| 20260506214524 | 20 | 311 | 4.8 | 25.7 | 0.00 | 0.00 | 0.00 | 70 | 1011.7 |
| 20260506214522 | 20 | 22 | 4.8 | 25.7 | 0.00 | 0.00 | 0.00 | 70 | 1012.3 |
| 20260506214008 | 20 | 352 | 9.7 | 25.7 | 0.00 | 0.00 | 0.00 | 71 | 1012.3 |
| 20260506214006 | 20 | 296 | 11.3 | 25.7 | 0.00 | 0.00 | 0.00 | 71 | 1011.7 |
| 20260506213508 | 20 | 32 | 6.4 | 19.3 | 0.00 | 0.00 | 0.00 | 72 | 1012.3 |
| 20260506213503 | 20 | 346 | 8.0 | 22.5 | 0.00 | 0.00 | 0.00 | 72 | 1011.8 |
| 20260506213030 | 20 | 330 | 4.8 | 19.3 | 0.00 | 0.00 | 0.00 | 71 | 1012.5 |
| 20260506213006 | 20 | 308 | 6.4 | 19.3 | 0.00 | 0.00 | 0.00 | 71 | 1012.0 |
| 20260506212508 | 20 | 5 | 6.4 | 17.7 | 0.00 | 0.00 | 0.00 | 73 | 1012.7 |
| 20260506212503 | 20 | 343 | 6.4 | 17.7 | 0.00 | 0.00 | 0.00 | 73 | 1012.2 |